QPF
0.02 0.03 0.03 0.04 0.04 0.04 0.07 0.07 0.05 0.03 0.03 0.03 0.02 0.03 0.04 0.03 0.02 0.03 0.03 0.02 0.03 0.03 0.05 0.05 0.06 0.06 0.07 0.07 0.07 0.05 0.04 0.03 0.03 0.02 0.02 0.02 0.03 0.03 0.02 0.02 0.03 0.02 0.02
0.03 0.02 0.03 0.05 0.05 0.05 0.05 0.04 0.04 0.05 0.04 0.04 0.04 0.03 0.03 0.04 0.04 0.06 0.05 0.03 0.03 0.02 0.03 0.04 0.06 0.08 0.09 0.08 0.08 0.06 0.05 0.05 0.05 0.04 0.03 0.03 0.03 0.03 0.02 0.02 0.02 0.02 0.02
0.05 0.04 0.04 0.05 0.05 0.05 0.05 0.05 0.04 0.05 0.05 0.05 0.05 0.05 0.05 0.04 0.03 0.05 0.04 0.04 0.03 0.02 0.02 0.03 0.05 0.06 0.07 0.07 0.07 0.06 0.06 0.05 0.04 0.03 0.02 0.02 0.02 0.02 0.01 0.01 0.01 0.01 0.01
0.04 0.06 0.07 0.05 0.05 0.05 0.04 0.06 0.05 0.05 0.07 0.07 0.07 0.07 0.06 0.07 0.04 0.05 0.03 0.03 0.03 0.03 0.04 0.03 0.03 0.03 0.04 0.07 0.07 0.07 0.05 0.03 0.03 0.02 0.01 0.01 0.01 0.01 0.01 0.01 0.01 0.01 0.01
0.05 0.06 0.07 0.08 0.06 0.07 0.06 0.04 0.04 0.05 0.06 0.07 0.05 0.07 0.06 0.07 0.07 0.05 0.04 0.03 0.03 0.05 0.07 0.05 0.03 0.03 0.03 0.06 0.07 0.07 0.07 0.05 0.03 0.02 0.02 0.02 0.02 0.01 0.01 0.01 0.01 0.01 0.01
0.05 0.08 0.07 0.07 0.07 0.08 0.10 0.10 0.10 0.11 0.09 0.07 0.04 0.04 0.05 0.05 0.06 0.06 0.05 0.04 0.03 0.03 0.04 0.05 0.06 0.04 0.03 0.04 0.05 0.07 0.08 0.07 0.06 0.04 0.03 0.03 0.03 0.02 0.01 0.01 0.01 0.01 0.01
0.08 0.09 0.07 0.10 0.10 0.11 0.11 0.11 0.11 0.11 0.09 0.07 0.08 0.08 0.06 0.05 0.04 0.04 0.04 0.05 0.04 0.03 0.03 0.03 0.04 0.05 0.05 0.03 0.03 0.04 0.06 0.08 0.08 0.08 0.06 0.05 0.05 0.04 0.03 0.03 0.02 0.01 0.02
0.09 0.08 0.12 0.11 0.12 0.14 0.13 0.11 0.12 0.10 0.09 0.08 0.12 0.12 0.09 0.07 0.05 0.02 0.02 0.03 0.03 0.03 0.02 0.02 0.03 0.06 0.04 0.05 0.04 0.03 0.04 0.05 0.08 0.09 0.08 0.07 0.06 0.06 0.06 0.06 0.04 0.03 0.03
0.06 0.08 0.10 0.10 0.12 0.12 0.14 0.16 0.14 0.14 0.13 0.10 0.11 0.13 0.11 0.11 0.09 0.06 0.02 0.01 0.02 0.02 0.02 0.02 0.01 0.03 0.03 0.04 0.05 0.04 0.03 0.03 0.05 0.08 0.10 0.08 0.06 0.06 0.07 0.06 0.05 0.05 0.05
0.06 0.06 0.10 0.10 0.10 0.08 0.12 0.12 0.10 0.14 0.16 0.12 0.10 0.10 0.09 0.12 0.12 0.10 0.05 0.02 0.02 0.02 0.02 0.02 0.01 0.02 0.02 0.03 0.04 0.03 0.02 0.02 0.05 0.08 0.09 0.10 0.08 0.07 0.07 0.06 0.05 0.05 0.05
0.07 0.05 0.07 0.09 0.09 0.08 0.09 0.12 0.13 0.13 0.12 0.12 0.11 0.10 0.09 0.09 0.08 0.07 0.08 0.07 0.05 0.03 0.04 0.04 0.04 0.02 0.01 0.02 0.04 0.02 0.01 0.01 0.02 0.03 0.05 0.06 0.05 0.06 0.06 0.06 0.06 0.07 0.08
0.07 0.06 0.07 0.08 0.08 0.08 0.09 0.12 0.13 0.12 0.13 0.12 0.11 0.10 0.09 0.08 0.07 0.08 0.09 0.08 0.07 0.06 0.05 0.04 0.02 0.02 0.02 0.03 0.03 0.01 0.00 0.01 0.01 0.01 0.02 0.03 0.04 0.06 0.07 0.07 0.08 0.09 0.10
0.05 0.07 0.08 0.09 0.08 0.09 0.08 0.11 0.11 0.10 0.10 0.11 0.11 0.10 0.10 0.08 0.09 0.10 0.11 0.10 0.09 0.04 0.03 0.03 0.02 0.02 0.02 0.02 0.03 0.01 0.01 0.02 0.01 0.02 0.02 0.02 0.03 0.05 0.06 0.07 0.07 0.07 0.08
0.05 0.06 0.09 0.09 0.10 0.09 0.08 0.11 0.11 0.09 0.09 0.10 0.09 0.11 0.10 0.08 0.09 0.11 0.12 0.13 0.11 0.06 0.04 0.03 0.02 0.02 0.03 0.03 0.04 0.03 0.03 0.03 0.03 0.02 0.02 0.02 0.02 0.02 0.03 0.04 0.04 0.04 0.05
0.07 0.06 0.06 0.06 0.07 0.08 0.10 0.12 0.11 0.09 0.11 0.10 0.09 0.10 0.10 0.08 0.09 0.11 0.13 0.15 0.14 0.11 0.09 0.07 0.04 0.04 0.05 0.05 0.06 0.04 0.03 0.03 0.03 0.03 0.03 0.02 0.02 0.02 0.02 0.03 0.03 0.03 0.03
0.04 0.04 0.04 0.04 0.05 0.07 0.09 0.11 0.11 0.11 0.13 0.11 0.11 0.12 0.11 0.09 0.10 0.10 0.10 0.12 0.13 0.14 0.13 0.10 0.07 0.06 0.06 0.06 0.06 0.04 0.03 0.04 0.03 0.03 0.03 0.03 0.04 0.04 0.03 0.03 0.03 0.03 0.03
0.03 0.03 0.03 0.05 0.07 0.07 0.07 0.08 0.09 0.10 0.10 0.09 0.08 0.09 0.10 0.11 0.10 0.10 0.10 0.11 0.11 0.11 0.10 0.08 0.06 0.06 0.05 0.06 0.06 0.05 0.04 0.04 0.05 0.05 0.05 0.04 0.04 0.03 0.03 0.02 0.02 0.02 0.01
0.03 0.03 0.03 0.04 0.05 0.06 0.06 0.07 0.07 0.08 0.08 0.07 0.08 0.10 0.10 0.09 0.10 0.11 0.12 0.11 0.11 0.10 0.10 0.09 0.07 0.08 0.08 0.07 0.06 0.06 0.05 0.05 0.04 0.05 0.05 0.05 0.04 0.04 0.03 0.02 0.02 0.03 0.02
0.03 0.02 0.04 0.05 0.06 0.07 0.06 0.05 0.07 0.08 0.08 0.09 0.10 0.10 0.10 0.12 0.11 0.12 0.12 0.12 0.11 0.10 0.11 0.09 0.07 0.06 0.05 0.05 0.05 0.04 0.04 0.04 0.04 0.04 0.04 0.04 0.03 0.03 0.03 0.03 0.03 0.03 0.03
0.03 0.04 0.06 0.07 0.06 0.06 0.06 0.06 0.07 0.08 0.09 0.11 0.13 0.14 0.14 0.15 0.14 0.14 0.12 0.11 0.11 0.11 0.10 0.10 0.09 0.07 0.07 0.07 0.07 0.06 0.06 0.05 0.05 0.04 0.04 0.03 0.03 0.04 0.04 0.04 0.03 0.03 0.03
0.03 0.05 0.06 0.05 0.06 0.07 0.06 0.06 0.07 0.08 0.10 0.10 0.10 0.10 0.10 0.11 0.11 0.11 0.09 0.10 0.11 0.12 0.14 0.14 0.13 0.11 0.09 0.09 0.08 0.07 0.07 0.07 0.07 0.05 0.05 0.04 0.05 0.05 0.05 0.05 0.04 0.04 0.04
0.02 0.03 0.04 0.04 0.05 0.06 0.08 0.09 0.09 0.09 0.09 0.10 0.10 0.10 0.10 0.10 0.11 0.11 0.11 0.11 0.12 0.14 0.15 0.16 0.14 0.13 0.12 0.10 0.11 0.09 0.08 0.07 0.06 0.05 0.05 0.05 0.06 0.06 0.05 0.05 0.05 0.05 0.05
0.02 0.02 0.03 0.03 0.03 0.05 0.07 0.09 0.09 0.10 0.10 0.09 0.09 0.09 0.09 0.09 0.11 0.13 0.14 0.14 0.14 0.14 0.13 0.12 0.12 0.11 0.12 0.11 0.12 0.10 0.08 0.07 0.07 0.06 0.06 0.06 0.06 0.06 0.05 0.06 0.06 0.06 0.06
0.02 0.02 0.02 0.02 0.03 0.05 0.06 0.07 0.10 0.09 0.07 0.06 0.05 0.05 0.06 0.06 0.08 0.12 0.12 0.10 0.09 0.09 0.10 0.09 0.08 0.09 0.10 0.10 0.10 0.09 0.09 0.10 0.10 0.08 0.06 0.06 0.06 0.06 0.05 0.05 0.06 0.06 0.05
0.02 0.02 0.02 0.02 0.04 0.05 0.06 0.06 0.09 0.09 0.09 0.07 0.06 0.06 0.05 0.06 0.07 0.08 0.07 0.06 0.05 0.06 0.07 0.07 0.07 0.06 0.06 0.06 0.05 0.05 0.06 0.07 0.08 0.07 0.05 0.05 0.05 0.05 0.05 0.05 0.06 0.07 0.07
0.02 0.02 0.02 0.02 0.02 0.02 0.03 0.03 0.04 0.05 0.06 0.07 0.08 0.08 0.08 0.07 0.06 0.05 0.04 0.04 0.03 0.04 0.04 0.05 0.05 0.05 0.03 0.03 0.03 0.03 0.05 0.06 0.06 0.06 0.04 0.04 0.04 0.04 0.04 0.03 0.04 0.06 0.07
MSLP
1017.34 1017.68 1017.99 1018.28 1018.54 1018.77 1018.99 1019.18 1019.34 1019.45 1019.50 1019.49 1019.45 1019.39 1019.36 1019.40 1019.55 1019.81 1020.18 1020.62 1021.08 1021.52 1021.88 1022.15 1022.31 1022.41 1022.46 1022.51 1022.59 1022.72 1022.90 1023.11 1023.33 1023.53 1023.70 1023.82 1023.90 1023.96 1024.00 1024.04 1024.09 1024.14 1024.19
1017.54 1017.87 1018.16 1018.41 1018.62 1018.81 1018.99 1019.16 1019.31 1019.43 1019.51 1019.54 1019.53 1019.49 1019.47 1019.49 1019.58 1019.77 1020.06 1020.41 1020.81 1021.21 1021.57 1021.87 1022.10 1022.28 1022.41 1022.53 1022.66 1022.81 1022.98 1023.16 1023.35 1023.52 1023.66 1023.78 1023.86 1023.93 1023.99 1024.04 1024.09 1024.13 1024.17
1017.72 1018.02 1018.28 1018.49 1018.67 1018.83 1018.99 1019.15 1019.31 1019.45 1019.56 1019.63 1019.65 1019.62 1019.59 1019.56 1019.58 1019.68 1019.85 1020.11 1020.43 1020.78 1021.13 1021.47 1021.77 1022.03 1022.26 1022.46 1022.63 1022.81 1022.97 1023.13 1023.28 1023.42 1023.53 1023.64 1023.73 1023.81 1023.89 1023.96 1024.03 1024.09 1024.13
1017.82 1018.09 1018.32 1018.51 1018.67 1018.83 1018.98 1019.16 1019.33 1019.51 1019.65 1019.74 1019.78 1019.75 1019.69 1019.61 1019.55 1019.54 1019.60 1019.75 1019.98 1020.27 1020.61 1020.97 1021.33 1021.66 1021.96 1022.23 1022.46 1022.66 1022.82 1022.96 1023.08 1023.18 1023.28 1023.37 1023.47 1023.58 1023.70 1023.81 1023.91 1023.99 1024.05
1017.83 1018.07 1018.27 1018.45 1018.61 1018.78 1018.96 1019.15 1019.36 1019.56 1019.72 1019.84 1019.88 1019.85 1019.76 1019.63 1019.50 1019.39 1019.35 1019.39 1019.52 1019.74 1020.04 1020.39 1020.77 1021.14 1021.50 1021.82 1022.09 1022.31 1022.48 1022.61 1022.70 1022.79 1022.88 1022.98 1023.10 1023.24 1023.40 1023.56 1023.70 1023.82 1023.91
1017.75 1017.95 1018.14 1018.32 1018.50 1018.69 1018.89 1019.12 1019.35 1019.57 1019.75 1019.88 1019.93 1019.89 1019.78 1019.62 1019.43 1019.25 1019.12 1019.06 1019.10 1019.23 1019.46 1019.76 1020.11 1020.49 1020.86 1021.20 1021.50 1021.74 1021.92 1022.06 1022.16 1022.25 1022.35 1022.46 1022.61 1022.79 1023.00 1023.20 1023.40 1023.56 1023.68
1017.61 1017.77 1017.95 1018.14 1018.34 1018.56 1018.80 1019.05 1019.29 1019.52 1019.71 1019.83 1019.88 1019.85 1019.74 1019.57 1019.36 1019.14 1018.94 1018.81 1018.75 1018.78 1018.91 1019.13 1019.41 1019.74 1020.09 1020.42 1020.73 1020.98 1021.19 1021.35 1021.48 1021.59 1021.71 1021.86 1022.04 1022.26 1022.50 1022.74 1022.97 1023.17 1023.32
1017.45 1017.58 1017.75 1017.95 1018.18 1018.42 1018.68 1018.94 1019.19 1019.40 1019.58 1019.69 1019.75 1019.73 1019.64 1019.48 1019.29 1019.06 1018.84 1018.65 1018.50 1018.43 1018.44 1018.54 1018.72 1018.96 1019.24 1019.54 1019.84 1020.11 1020.35 1020.55 1020.72 1020.87 1021.03 1021.21 1021.42 1021.66 1021.92 1022.19 1022.44 1022.66 1022.84
1017.31 1017.41 1017.58 1017.78 1018.03 1018.29 1018.55 1018.80 1019.03 1019.21 1019.36 1019.46 1019.51 1019.51 1019.47 1019.36 1019.22 1019.03 1018.81 1018.59 1018.37 1018.20 1018.08 1018.04 1018.08 1018.20 1018.40 1018.65 1018.93 1019.21 1019.48 1019.73 1019.96 1020.16 1020.36 1020.57 1020.79 1021.03 1021.29 1021.55 1021.81 1022.04 1022.23
1017.18 1017.27 1017.43 1017.64 1017.89 1018.16 1018.41 1018.63 1018.82 1018.96 1019.06 1019.14 1019.19 1019.22 1019.23 1019.21 1019.14 1019.02 1018.84 1018.61 1018.35 1018.08 1017.84 1017.66 1017.56 1017.55 1017.65 1017.84 1018.09 1018.39 1018.69 1018.99 1019.27 1019.52 1019.75 1019.96 1020.18 1020.40 1020.63 1020.87 1021.11 1021.33 1021.53
1017.05 1017.12 1017.27 1017.49 1017.75 1018.01 1018.24 1018.42 1018.55 1018.63 1018.69 1018.74 1018.80 1018.87 1018.94 1019.01 1019.03 1019.00 1018.88 1018.68 1018.39 1018.06 1017.72 1017.41 1017.17 1017.05 1017.05 1017.17 1017.40 1017.70 1018.04 1018.38 1018.70 1018.98 1019.21 1019.42 1019.61 1019.79 1019.97 1020.17 1020.37 1020.59 1020.80
1016.84 1016.91 1017.07 1017.29 1017.55 1017.79 1017.99 1018.13 1018.21 1018.24 1018.25 1018.28 1018.34 1018.45 1018.59 1018.75 1018.88 1018.94 1018.90 1018.74 1018.47 1018.10 1017.68 1017.27 1016.94 1016.71 1016.63 1016.70 1016.90 1017.19 1017.55 1017.91 1018.25 1018.53 1018.76 1018.94 1019.08 1019.20 1019.33 1019.47 1019.65 1019.86 1020.09
1016.52 1016.59 1016.75 1016.98 1017.23 1017.47 1017.64 1017.75 1017.78 1017.77 1017.75 1017.76 1017.83 1017.97 1018.18 1018.43 1018.66 1018.82 1018.86 1018.76 1018.51 1018.14 1017.69 1017.22 1016.81 1016.52 1016.38 1016.40 1016.57 1016.86 1017.21 1017.57 1017.90 1018.17 1018.37 1018.50 1018.58 1018.64 1018.71 1018.81 1018.96 1019.17 1019.43
1016.05 1016.13 1016.30 1016.53 1016.79 1017.01 1017.18 1017.26 1017.27 1017.23 1017.19 1017.20 1017.28 1017.46 1017.73 1018.05 1018.36 1018.61 1018.73 1018.69 1018.49 1018.14 1017.69 1017.21 1016.77 1016.44 1016.26 1016.25 1016.39 1016.65 1016.98 1017.32 1017.62 1017.86 1018.00 1018.07 1018.10 1018.10 1018.12 1018.20 1018.34 1018.56 1018.86
1015.46 1015.54 1015.72 1015.96 1016.22 1016.44 1016.61 1016.69 1016.69 1016.65 1016.62 1016.63 1016.73 1016.94 1017.25 1017.62 1017.99 1018.31 1018.50 1018.52 1018.37 1018.07 1017.65 1017.19 1016.76 1016.42 1016.23 1016.19 1016.31 1016.53 1016.82 1017.12 1017.37 1017.55 1017.64 1017.65 1017.62 1017.58 1017.57 1017.63 1017.78 1018.03 1018.37
1014.83 1014.91 1015.08 1015.32 1015.58 1015.81 1015.98 1016.07 1016.09 1016.07 1016.05 1016.08 1016.21 1016.44 1016.77 1017.17 1017.58 1017.93 1018.17 1018.25 1018.16 1017.91 1017.55 1017.14 1016.74 1016.42 1016.23 1016.18 1016.27 1016.45 1016.69 1016.93 1017.11 1017.23 1017.26 1017.23 1017.16 1017.09 1017.07 1017.14 1017.30 1017.58 1017.96
1014.27 1014.34 1014.50 1014.72 1014.96 1015.19 1015.36 1015.47 1015.52 1015.53 1015.54 1015.60 1015.75 1016.00 1016.34 1016.74 1017.16 1017.53 1017.79 1017.91 1017.87 1017.69 1017.39 1017.03 1016.69 1016.41 1016.23 1016.17 1016.23 1016.37 1016.54 1016.71 1016.84 1016.89 1016.88 1016.81 1016.72 1016.65 1016.63 1016.71 1016.90 1017.20 1017.61
1013.91 1013.95 1014.07 1014.25 1014.47 1014.67 1014.85 1014.97 1015.04 1015.09 1015.14 1015.23 1015.40 1015.65 1015.98 1016.37 1016.78 1017.14 1017.41 1017.55 1017.55 1017.42 1017.18 1016.90 1016.61 1016.37 1016.21 1016.14 1016.17 1016.25 1016.37 1016.47 1016.53 1016.54 1016.49 1016.41 1016.31 1016.25 1016.26 1016.36 1016.57 1016.89 1017.31
1013.81 1013.80 1013.87 1013.99 1014.16 1014.33 1014.48 1014.61 1014.70 1014.78 1014.86 1014.98 1015.16 1015.42 1015.74 1016.10 1016.47 1016.81 1017.06 1017.21 1017.24 1017.15 1016.97 1016.74 1016.50 1016.30 1016.15 1016.07 1016.06 1016.10 1016.15 1016.20 1016.21 1016.18 1016.12 1016.03 1015.96 1015.92 1015.96 1016.08 1016.31 1016.64 1017.06
1013.99 1013.92 1013.92 1013.96 1014.05 1014.16 1014.28 1014.39 1014.50 1014.59 1014.71 1014.86 1015.05 1015.30 1015.60 1015.94 1016.27 1016.57 1016.80 1016.93 1016.97 1016.91 1016.77 1016.58 1016.38 1016.20 1016.05 1015.96 1015.91 1015.90 1015.90 1015.90 1015.87 1015.82 1015.76 1015.69 1015.65 1015.65 1015.72 1015.87 1016.12 1016.45 1016.86
1014.37 1014.24 1014.16 1014.12 1014.12 1014.16 1014.23 1014.31 1014.41 1014.53 1014.66 1014.84 1015.05 1015.30 1015.58 1015.88 1016.17 1016.43 1016.63 1016.74 1016.77 1016.72 1016.60 1016.44 1016.25 1016.07 1015.92 1015.80 1015.71 1015.65 1015.60 1015.55 1015.50 1015.45 1015.40 1015.36 1015.36 1015.41 1015.52 1015.70 1015.96 1016.30 1016.70
1014.83 1014.66 1014.49 1014.37 1014.29 1014.25 1014.27 1014.32 1014.41 1014.54 1014.70 1014.89 1015.12 1015.37 1015.64 1015.92 1016.17 1016.39 1016.55 1016.63 1016.64 1016.58 1016.46 1016.30 1016.11 1015.92 1015.74 1015.58 1015.44 1015.33 1015.24 1015.16 1015.09 1015.04 1015.02 1015.02 1015.07 1015.16 1015.32 1015.54 1015.83 1016.17 1016.56
1015.24 1015.03 1014.81 1014.62 1014.47 1014.37 1014.34 1014.37 1014.45 1014.59 1014.77 1014.99 1015.24 1015.50 1015.77 1016.02 1016.25 1016.42 1016.54 1016.59 1016.57 1016.49 1016.34 1016.16 1015.95 1015.73 1015.51 1015.30 1015.11 1014.95 1014.81 1014.70 1014.62 1014.59 1014.59 1014.64 1014.73 1014.89 1015.09 1015.35 1015.67 1016.03 1016.43
1015.49 1015.27 1015.02 1014.79 1014.60 1014.47 1014.41 1014.43 1014.52 1014.67 1014.88 1015.12 1015.39 1015.66 1015.93 1016.16 1016.36 1016.50 1016.58 1016.59 1016.53 1016.41 1016.23 1016.01 1015.76 1015.50 1015.23 1014.96 1014.72 1014.51 1014.33 1014.19 1014.10 1014.07 1014.10 1014.19 1014.33 1014.54 1014.79 1015.10 1015.44 1015.83 1016.26
1015.51 1015.32 1015.08 1014.85 1014.66 1014.53 1014.47 1014.50 1014.60 1014.78 1015.01 1015.28 1015.56 1015.84 1016.10 1016.32 1016.49 1016.59 1016.63 1016.60 1016.49 1016.33 1016.11 1015.85 1015.55 1015.24 1014.92 1014.60 1014.30 1014.04 1013.82 1013.65 1013.55 1013.52 1013.56 1013.68 1013.86 1014.10 1014.40 1014.74 1015.12 1015.54 1016.01
1015.36 1015.22 1015.04 1014.85 1014.70 1014.59 1014.56 1014.61 1014.74 1014.94 1015.20 1015.48 1015.77 1016.05 1016.29 1016.49 1016.62 1016.68 1016.67 1016.59 1016.45 1016.24 1015.98 1015.68 1015.34 1014.98 1014.62 1014.25 1013.91 1013.60 1013.34 1013.14 1013.02 1012.97 1013.01 1013.13 1013.33 1013.58 1013.90 1014.27 1014.68 1015.13 1015.63
Thickness
5751 5751 5749 5749 5750 5749 5747 5746 5747 5746 5746 5746 5747 5746 5746 5746 5746 5745 5742 5737 5735 5734 5732 5731 5729 5727 5726 5724 5723 5721 5720 5719 5718 5717 5715 5714 5713 5711 5711 5710 5708 5707 5706
5751 5750 5749 5748 5749 5749 5749 5748 5747 5747 5747 5747 5747 5746 5746 5746 5745 5744 5744 5740 5736 5735 5733 5732 5730 5728 5726 5725 5723 5722 5720 5719 5718 5717 5715 5714 5712 5711 5710 5709 5708 5707 5706
5749 5749 5750 5749 5750 5749 5747 5747 5747 5748 5748 5748 5748 5747 5747 5746 5746 5744 5744 5744 5741 5737 5734 5732 5730 5729 5727 5726 5724 5723 5721 5720 5719 5717 5716 5714 5713 5711 5710 5709 5708 5706 5705
5748 5748 5750 5751 5750 5750 5749 5748 5748 5748 5748 5749 5748 5748 5748 5746 5746 5745 5745 5744 5743 5742 5737 5734 5732 5730 5728 5727 5725 5724 5722 5721 5719 5718 5716 5714 5713 5711 5710 5709 5707 5706 5705
5749 5749 5749 5749 5748 5749 5749 5750 5751 5749 5747 5747 5748 5748 5748 5747 5746 5746 5746 5745 5744 5742 5741 5737 5734 5731 5730 5728 5727 5725 5723 5722 5720 5718 5716 5714 5713 5711 5710 5709 5707 5706 5704
5749 5749 5749 5749 5750 5750 5749 5749 5747 5746 5746 5746 5749 5748 5748 5749 5747 5747 5747 5747 5745 5743 5742 5741 5737 5734 5732 5730 5728 5726 5725 5723 5721 5719 5717 5715 5713 5711 5710 5708 5707 5706 5704
5750 5748 5751 5749 5748 5749 5748 5749 5747 5746 5745 5746 5744 5743 5747 5749 5748 5748 5747 5747 5747 5744 5743 5741 5739 5738 5736 5732 5730 5728 5726 5724 5722 5719 5717 5715 5713 5711 5710 5708 5706 5705 5703
5750 5750 5749 5749 5749 5748 5747 5748 5746 5746 5746 5747 5743 5739 5738 5742 5745 5750 5749 5747 5746 5745 5744 5742 5740 5738 5737 5736 5733 5730 5727 5725 5723 5721 5718 5716 5714 5712 5709 5707 5706 5704 5703
5751 5750 5750 5750 5750 5749 5748 5746 5747 5745 5744 5746 5746 5740 5735 5735 5741 5747 5747 5747 5745 5745 5744 5743 5741 5740 5738 5737 5735 5731 5729 5726 5723 5721 5719 5716 5714 5712 5710 5707 5705 5704 5702
5751 5751 5750 5749 5749 5750 5748 5748 5749 5747 5744 5743 5745 5745 5743 5742 5736 5737 5743 5747 5746 5744 5744 5744 5743 5741 5738 5736 5734 5732 5729 5726 5723 5721 5719 5716 5714 5711 5709 5707 5705 5702 5700
5752 5752 5750 5749 5749 5749 5749 5748 5748 5747 5746 5744 5743 5743 5742 5741 5741 5736 5735 5739 5742 5744 5744 5743 5742 5741 5739 5737 5734 5732 5729 5725 5723 5720 5718 5715 5713 5710 5708 5706 5703 5701 5699
5753 5753 5751 5750 5749 5749 5749 5748 5747 5747 5746 5745 5744 5743 5741 5740 5740 5739 5736 5736 5737 5741 5742 5742 5741 5740 5738 5736 5734 5731 5728 5724 5722 5719 5717 5714 5712 5709 5707 5704 5702 5700 5697
5754 5752 5752 5749 5749 5748 5748 5748 5746 5746 5745 5744 5742 5743 5744 5744 5744 5741 5737 5735 5735 5738 5739 5739 5740 5738 5737 5735 5732 5729 5726 5723 5720 5717 5715 5712 5710 5707 5705 5703 5700 5697 5695
5755 5753 5751 5749 5748 5748 5748 5747 5747 5746 5745 5743 5743 5742 5742 5744 5744 5742 5739 5734 5730 5733 5735 5736 5738 5736 5734 5732 5729 5726 5724 5721 5718 5715 5713 5710 5707 5705 5702 5699 5697 5694 5691
5754 5752 5751 5750 5749 5748 5747 5746 5746 5744 5744 5743 5744 5743 5742 5743 5742 5741 5740 5737 5729 5726 5728 5732 5733 5733 5730 5728 5725 5723 5721 5719 5716 5713 5710 5707 5704 5701 5698 5695 5692 5689 5687
5753 5751 5750 5749 5748 5748 5747 5745 5745 5744 5742 5741 5741 5740 5739 5741 5740 5739 5738 5736 5733 5728 5725 5730 5729 5730 5726 5725 5721 5719 5717 5715 5712 5710 5707 5703 5700 5697 5694 5691 5688 5685 5682
5752 5750 5749 5748 5747 5747 5746 5744 5743 5743 5741 5740 5740 5739 5737 5737 5736 5736 5735 5734 5732 5730 5724 5726 5726 5725 5721 5719 5716 5714 5712 5710 5708 5705 5702 5699 5695 5692 5689 5686 5682 5680 5677
5752 5751 5749 5747 5746 5746 5744 5742 5741 5741 5740 5739 5738 5736 5735 5735 5732 5732 5730 5730 5729 5728 5724 5720 5720 5718 5715 5714 5711 5709 5708 5706 5703 5700 5696 5693 5690 5686 5683 5680 5677 5674 5671
5752 5750 5748 5746 5745 5743 5742 5740 5740 5739 5738 5737 5735 5733 5732 5731 5728 5728 5726 5726 5726 5725 5722 5718 5716 5714 5712 5709 5706 5704 5702 5699 5697 5694 5690 5686 5683 5680 5677 5674 5671 5668 5664
5751 5749 5746 5744 5743 5741 5739 5737 5737 5736 5735 5734 5732 5731 5729 5728 5726 5724 5723 5721 5720 5718 5716 5714 5711 5709 5706 5704 5700 5697 5694 5692 5690 5688 5684 5680 5677 5673 5671 5667 5664 5661 5657
5750 5747 5744 5741 5740 5738 5736 5734 5733 5732 5730 5729 5728 5727 5726 5724 5720 5719 5718 5717 5715 5713 5711 5709 5706 5704 5701 5697 5695 5693 5689 5686 5683 5681 5678 5675 5672 5669 5665 5660 5657 5654 5650
5747 5744 5741 5739 5736 5734 5730 5727 5726 5727 5726 5724 5722 5722 5721 5718 5715 5712 5711 5709 5708 5707 5706 5703 5701 5698 5696 5694 5691 5688 5684 5680 5676 5676 5672 5670 5667 5664 5659 5655 5651 5646 5642
5744 5740 5737 5735 5732 5728 5723 5721 5720 5721 5720 5719 5717 5715 5715 5714 5710 5709 5706 5703 5702 5700 5698 5697 5696 5694 5691 5689 5685 5681 5678 5676 5674 5672 5666 5663 5660 5656 5652 5648 5643 5639 5635
5739 5736 5733 5730 5727 5722 5717 5716 5714 5716 5715 5713 5711 5709 5706 5705 5703 5700 5700 5699 5698 5695 5692 5691 5690 5688 5686 5683 5679 5676 5673 5669 5667 5663 5659 5656 5652 5648 5645 5640 5635 5631 5627
5734 5731 5728 5725 5722 5717 5711 5709 5707 5711 5709 5707 5705 5703 5700 5698 5693 5691 5691 5691 5690 5688 5684 5682 5680 5678 5676 5673 5671 5669 5666 5662 5660 5657 5653 5650 5646 5641 5637 5633 5627 5623 5619
5729 5726 5723 5719 5716 5712 5706 5703 5701 5706 5704 5702 5699 5696 5691 5689 5685 5682 5684 5683 5681 5680 5678 5676 5673 5670 5669 5666 5663 5661 5661 5658 5655 5650 5647 5643 5640 5635 5629 5626 5621 5615 5611